EW6851 Barcellona Pozzo Di Gotto IT current weather conditions

sailwx.info

Wind from 271

Air temperature 17.2° C
Dewpoint 9.6° C

Last reported at 2020-Jan-22 13:06 UTC.
Time now 2020-Jan-22 14:07 UTC

Location: N 38°09' E 015°13'.
View on Google Maps.

See reports from other nearby stations

  
Tides and Currents Weather Stations Pressure Air Temp Water Temp Dewpoint Dewpoint Depression Visibility Wind Speed Wind Dir Waves Ship Positions
date/time (UTC)wind fromknots sea level pressurealtimeterstation pressurevisibilityair tempwater tempwave heightnotes
2020-Jan-22 13:06 271 17.2
2020-Jan-22 13:01 292 2 gusting 4 16.7
2020-Jan-22 12:56 257 4 gusting 6 16.7
2020-Jan-22 12:51 275 16.7
2020-Jan-22 12:46 246 2 gusting 5 17.2
2020-Jan-22 12:41 273 2 gusting 4 16.7
2020-Jan-22 12:36 279 4 gusting 5 16.7
2020-Jan-22 12:31 306 3 gusting 6 17.2
2020-Jan-22 12:26 255 0 gusting 4 17.2
2020-Jan-22 12:21 274 1 gusting 5 17.2
2020-Jan-22 12:16 229 16.7
2020-Jan-22 12:11 267 3 gusting 3 16.7
2020-Jan-22 12:06 289 1 gusting 6 16.7
2020-Jan-22 12:01 287 2 gusting 6 16.7
2020-Jan-22 11:56 271 3 gusting 5 16.7
2020-Jan-22 11:51 232 0 gusting 4 16.7
2020-Jan-22 11:46 267 4 gusting 5 16.7
2020-Jan-22 11:41 265 2 gusting 6 16.7
2020-Jan-22 11:36 235 4 gusting 6 16.7
2020-Jan-22 11:31 257 1 gusting 4 16.7
2020-Jan-22 11:26 306 16.7
2020-Jan-22 11:21 251 6 gusting 6 16.7
2020-Jan-22 11:16 288 1 gusting 6 16.7
2020-Jan-22 11:11 242 2 gusting 5 16.7
2020-Jan-22 11:06 278 3 gusting 5 16.7
2020-Jan-22 11:01 213 16.7
2020-Jan-22 10:56 205 2 gusting 4 16.7
2020-Jan-22 10:51 256 3 gusting 6 16.7
2020-Jan-22 10:46 281 5 gusting 6 16.1
2020-Jan-22 10:41 265 5 gusting 6 16.1
2020-Jan-22 10:36 312 2 gusting 5 16.1
2020-Jan-22 10:31 319 5 gusting 6 16.7
2020-Jan-22 10:26 262 2 gusting 6 16.7
2020-Jan-22 10:21 224 16.7
2020-Jan-22 10:16 261 5 gusting 6 16.7
2020-Jan-22 10:11 284 1 gusting 5 16.7
2020-Jan-22 10:06 259 0 gusting 2 16.7
2020-Jan-22 10:01 259 1 gusting 4 16.7
2020-Jan-22 09:56 197 16.7
2020-Jan-22 09:51 203 1 gusting 5 16.7
2020-Jan-22 09:46 242 16.1
2020-Jan-22 09:41 217 2 gusting 5 16.1
2020-Jan-22 09:36 221 16.1
2020-Jan-22 09:31 220 2 gusting 5 16.1
2020-Jan-22 09:26 200 4 gusting 4 15.6
2020-Jan-22 09:21 190 3 gusting 6 15.6
2020-Jan-22 09:16 196 3 gusting 5 15.6
2020-Jan-22 09:11 333 15.6
2020-Jan-22 09:06 333 15.0
2020-Jan-22 09:01 333 15.0
2020-Jan-22 08:56 333 14.4
2020-Jan-22 08:51 333 14.4
2020-Jan-22 08:46 333 14.4
2020-Jan-22 08:41 333 14.4
2020-Jan-22 08:36 333 13.9
2020-Jan-22 08:31 333 13.9
2020-Jan-22 08:26 333 13.9
2020-Jan-22 08:21 333 13.9
2020-Jan-22 08:16 333 13.9
2020-Jan-22 08:11 333 13.3
2020-Jan-22 08:06 333 13.3
2020-Jan-22 08:01 333 12.8
2020-Jan-22 07:56 333 12.2
2020-Jan-22 07:51 333 12.2
2020-Jan-22 07:46 333 12.2
2020-Jan-22 07:41 333 12.2
2020-Jan-22 07:36 333 1 gusting 2 12.2
2020-Jan-22 07:31 333 12.2
2020-Jan-22 07:26 327 0 gusting 3 12.2
2020-Jan-22 07:21 005 1 gusting 3 12.2
2020-Jan-22 07:16 332 12.8
2020-Jan-22 07:11 332 1 gusting 4 12.8
2020-Jan-22 07:06 069 13.3
2020-Jan-22 07:01 135 13.3
2020-Jan-22 06:56 135 13.3
2020-Jan-22 06:51 129 13.3
2020-Jan-22 06:46 128 13.3
2020-Jan-22 06:41 144 1 gusting 5 13.3
2020-Jan-22 06:36 140 3 gusting 6 13.3
2020-Jan-22 06:31 137 3 gusting 6 12.8
2020-Jan-22 06:26 099 2 gusting 4 12.8
2020-Jan-22 06:21 120 1 gusting 1 12.8
2020-Jan-22 06:16 119 12.8
2020-Jan-22 06:11 119 12.8
2020-Jan-22 06:06 119 12.8
2020-Jan-22 06:01 181 12.8
2020-Jan-22 05:56 183 12.8
2020-Jan-22 05:51 183 1 gusting 3 12.8
2020-Jan-22 05:46 183 1 gusting 6 13.3
2020-Jan-22 05:41 140 3 gusting 8 13.3
2020-Jan-22 05:36 134 0 gusting 8 13.3
2020-Jan-22 05:31 144 2 gusting 8 13.3
2020-Jan-22 05:26 135 3 gusting 6 13.3
2020-Jan-22 05:21 133 3 gusting 8 13.3
2020-Jan-22 05:16 143 5 gusting 11 13.3
2020-Jan-22 05:11 150 6 gusting 10 13.3
2020-Jan-22 05:06 164 5 gusting 11 13.3
2020-Jan-22 05:01 117 6 gusting 11 13.3
2020-Jan-22 04:56 159 7 gusting 12 13.3
2020-Jan-22 04:51 127 4 gusting 8 13.3
2020-Jan-22 04:46 143 5 gusting 11 13.3
2020-Jan-22 04:41 141 6 gusting 7 13.3
2020-Jan-22 04:36 162 4 gusting 9 13.3
2020-Jan-22 04:31 157 4 gusting 11 13.3
2020-Jan-22 04:26 126 8 gusting 10 13.3
2020-Jan-22 04:21 115 4 gusting 11 13.3
2020-Jan-22 04:16 136 3 gusting 7 12.8
2020-Jan-22 04:11 108 6 gusting 9 12.8
2020-Jan-22 04:06 128 12.8
2020-Jan-22 04:01 132 5 gusting 9 12.8
2020-Jan-22 03:56 135 2 gusting 7 12.8
2020-Jan-22 03:51 114 0 gusting 7 12.8
2020-Jan-22 03:46 131 3 gusting 6 12.8
2020-Jan-22 03:41 134 4 gusting 7 12.8
2020-Jan-22 03:36 143 5 gusting 11 12.8
2020-Jan-22 03:31 126 2 gusting 9 12.8
2020-Jan-22 03:26 159 5 gusting 12 12.8
2020-Jan-22 03:21 173 7 gusting 10 12.8
2020-Jan-22 03:16 177 6 gusting 12 12.8
2020-Jan-22 03:11 138 4 gusting 9 12.8
2020-Jan-22 03:06 172 6 gusting 9 12.8
2020-Jan-22 03:01 161 5 gusting 9 12.2
2020-Jan-22 02:56 161 2 gusting 4 12.2
2020-Jan-22 02:51 150 1 gusting 6 12.2
2020-Jan-22 02:46 113 0 gusting 6 12.2
2020-Jan-22 02:41 129 3 gusting 4 12.2
2020-Jan-22 02:36 127 2 gusting 6 12.2
2020-Jan-22 02:31 126 0 gusting 5 12.2
2020-Jan-22 02:26 136 2 gusting 6 12.2
2020-Jan-22 02:21 101 0 gusting 6 12.8
2020-Jan-22 02:16 124 3 gusting 6 12.8
2020-Jan-22 02:11 160 2 gusting 9 12.8
2020-Jan-22 02:06 148 2 gusting 8 12.8
2020-Jan-22 02:01 150 3 gusting 6 12.8
2020-Jan-22 01:56 135 6 gusting 9 12.8
2020-Jan-22 01:51 098 2 gusting 8 12.8
2020-Jan-22 01:46 126 6 gusting 6 12.8
2020-Jan-22 01:41 150 3 gusting 5 12.8
2020-Jan-22 01:36 150 2 gusting 7 12.8
2020-Jan-22 01:31 131 2 gusting 6 12.8
2020-Jan-22 01:26 141 6 gusting 10 12.8
2020-Jan-22 01:21 149 3 gusting 9 12.8
2020-Jan-22 01:16 151 4 gusting 10 12.8
2020-Jan-22 01:11 171 9 gusting 12 12.8
2020-Jan-22 01:06 167 10 gusting 11 12.8
2020-Jan-22 01:01 167 8 gusting 10 12.8
2020-Jan-22 00:56 179 8 gusting 12 12.8
2020-Jan-22 00:51 156 5 gusting 9 12.8
2020-Jan-22 00:46 160 6 gusting 10 12.8
2020-Jan-22 00:41 094 2 gusting 8 12.8
2020-Jan-22 00:36 161 5 gusting 5 12.8
2020-Jan-22 00:31 140 12.8
2020-Jan-22 00:26 140 12.8
2020-Jan-22 00:21 140 2 gusting 5 12.8
2020-Jan-22 00:16 139 2 gusting 6 12.8
2020-Jan-22 00:11 126 12.8
2020-Jan-22 00:06 143 1 gusting 5 12.8
2020-Jan-22 00:01 094 6 gusting 9 12.8
2020-Jan-21 23:56 044 0 gusting 6 12.2
2020-Jan-21 23:51 015 5 gusting 5 12.2
2020-Jan-21 23:46 348 12.8
2020-Jan-21 23:41 12.8
2020-Jan-21 23:36 077 1 gusting 4 12.8
2020-Jan-21 23:31 107 6 gusting 6 12.8
2020-Jan-21 23:26 142 2 gusting 5 12.8
2020-Jan-21 23:21 071 6 gusting 6 12.8
2020-Jan-21 23:16 059 12.8
2020-Jan-21 23:11 096 2 gusting 6 12.8
2020-Jan-21 23:06 127 12.8
2020-Jan-21 23:01 118 12.8
2020-Jan-21 22:56 157 12.8
2020-Jan-21 22:51 182 12.8
2020-Jan-21 22:46 167 0 gusting 2 12.8
2020-Jan-21 22:41 248 12.8
2020-Jan-21 22:36 156 12.8
2020-Jan-21 22:31 171 3 gusting 4 12.2
2020-Jan-21 22:26 045 12.2
2020-Jan-21 22:21 173 1 gusting 2 12.2
2020-Jan-21 22:16 271 12.2
2020-Jan-21 22:11 271 12.2
2020-Jan-21 22:06 271 12.8
2020-Jan-21 22:01 271 1 gusting 1 12.8
2020-Jan-21 21:56 271 12.8
2020-Jan-21 21:51 271 12.8
2020-Jan-21 21:46 271 12.8
2020-Jan-21 21:41 192 1 gusting 1 12.8
2020-Jan-21 21:36 192 1 gusting 3 13.3
2020-Jan-21 21:31 143 0 gusting 3 13.3
2020-Jan-21 21:26 139 13.3
2020-Jan-21 21:21 139 1 gusting 7 13.3
2020-Jan-21 21:16 078 13.3
2020-Jan-21 21:11 076 13.3
2020-Jan-21 21:06 065 0 gusting 4 13.3
2020-Jan-21 21:01 090 1 gusting 1 13.3
2020-Jan-21 20:56 090 0 gusting 2 13.3
2020-Jan-21 20:51 138 2 gusting 6 13.3
2020-Jan-21 20:46 095 2 gusting 6 13.3
2020-Jan-21 20:41 101 0 gusting 4 13.3
2020-Jan-21 20:36 098 13.3
2020-Jan-21 20:31 094 1 gusting 6 13.3
2020-Jan-21 20:26 163 0 gusting 2 13.3
2020-Jan-21 20:21 143 13.3
2020-Jan-21 20:16 148 13.3
2020-Jan-21 20:11 117 2 gusting 3 13.3
2020-Jan-21 20:06 284 13.3
2020-Jan-21 20:01 284 13.3
2020-Jan-21 19:56 284 13.3
2020-Jan-21 19:51 284 1 gusting 1 13.3
2020-Jan-21 19:46 290 13.3
2020-Jan-21 19:41 094 13.3
2020-Jan-21 19:36 229 3 gusting 5 13.9
2020-Jan-21 19:31 355 0 gusting 4 13.3
2020-Jan-21 19:26 017 1 gusting 4 13.3
2020-Jan-21 19:21 285 13.3
2020-Jan-21 19:16 268 1 gusting 1 13.3
2020-Jan-21 19:11 263 13.3
2020-Jan-21 19:06 263 13.3
2020-Jan-21 19:01 263 13.3
2020-Jan-21 18:56 263 1 gusting 4 13.3
2020-Jan-21 18:51 252 2 gusting 2 13.9
2020-Jan-21 18:46 252 13.9
2020-Jan-21 18:41 231 2 gusting 3 13.9
2020-Jan-21 18:36 062 0 gusting 1 13.9
2020-Jan-21 18:31 063 13.9
2020-Jan-21 18:26 063 13.9
2020-Jan-21 18:21 065 14.4
2020-Jan-21 18:16 090 14.4
2020-Jan-21 18:11 090 14.4
2020-Jan-21 18:06 144 14.4
2020-Jan-21 18:01 131 3 gusting 6 14.4
2020-Jan-21 17:56 111 14.4
2020-Jan-21 17:51 119 14.4
2020-Jan-21 17:46 121 0 gusting 3 14.4
2020-Jan-21 17:41 024 14.4
2020-Jan-21 17:36 024 14.4
2020-Jan-21 17:31 023 2 gusting 6 14.4
2020-Jan-21 17:26 040 1 gusting 5 14.4
2020-Jan-21 17:21 143 1 gusting 4 14.4
2020-Jan-21 17:16 335 14.4
2020-Jan-21 17:11 355 5 gusting 6 14.4
2020-Jan-21 17:06 074 1 gusting 6 15.0
2020-Jan-21 17:01 093 4 gusting 6 15.0
2020-Jan-21 16:56 178 4 gusting 9 15.0
2020-Jan-21 16:51 076 2 gusting 6 15.0
2020-Jan-21 16:46 146 4 gusting 6 15.0
2020-Jan-21 16:41 182 2 gusting 5 15.0
2020-Jan-21 16:36 159 1 gusting 7 15.0
2020-Jan-21 16:31 153 6 gusting 9 15.0
2020-Jan-21 16:26 140 3 gusting 4 15.0
2020-Jan-21 16:21 198 3 gusting 6 15.0
2020-Jan-21 16:16 205 6 gusting 9 15.0
2020-Jan-21 16:11 189 6 gusting 6 15.0
2020-Jan-21 16:06 158 1 gusting 5 15.0
2020-Jan-21 16:01 213 15.0
2020-Jan-21 15:56 210 4 gusting 6 15.0
2020-Jan-21 15:51 161 3 gusting 6 15.0
2020-Jan-21 15:46 242 15.0
2020-Jan-21 15:41 242 15.0
2020-Jan-21 15:36 242 15.0
2020-Jan-21 15:31 242 15.0
2020-Jan-21 15:26 242 2 gusting 4 15.0
2020-Jan-21 15:21 240 15.0
2020-Jan-21 15:16 241 0 gusting 4 15.0
2020-Jan-21 15:11 254 15.0
2020-Jan-21 15:06 208 1 gusting 3 15.0
2020-Jan-21 15:01 207 15.0
2020-Jan-21 14:56 220 2 gusting 5 15.6
2020-Jan-21 14:51 283 5 gusting 6 15.6
2020-Jan-21 14:46 209 0 gusting 4 15.6
2020-Jan-21 14:41 209 3 gusting 3 15.6
2020-Jan-21 14:36 238 16.1
2020-Jan-21 14:31 281 4 gusting 6 16.1
2020-Jan-21 14:26 269 16.1
2020-Jan-21 14:21 269 0 gusting 5 16.1
2020-Jan-21 14:16 273 3 gusting 4 16.1
2020-Jan-21 14:11 316 4 gusting 5 15.6
2020-Jan-21 14:06 020 15.6
2020-Jan-21 14:01 021 0 gusting 6 16.1
2020-Jan-21 13:56 071 2 gusting 8 16.1
2020-Jan-21 13:51 180 8 gusting 8 16.1
2020-Jan-21 13:46 092 0 gusting 6 16.1
2020-Jan-21 13:41 106 6 gusting 12 16.1
2020-Jan-21 13:36 086 1 gusting 6 16.1
2020-Jan-21 13:31 187 3 gusting 12 16.1
2020-Jan-21 13:26 142 2 gusting 4 16.1
2020-Jan-21 13:21 181 4 gusting 6 16.1
2020-Jan-21 13:16 146 3 gusting 5 16.1
2020-Jan-21 13:11 164 3 gusting 6 16.1
2020-Jan-21 13:06 126 16.7
2020-Jan-21 13:01 094 1 gusting 6 16.7
2020-Jan-21 12:56 048 3 gusting 8 16.7
2020-Jan-21 12:51 198 16.7
2020-Jan-21 12:46 197 1 gusting 5 16.1
2020-Jan-21 12:41 115 1 gusting 5 16.1
2020-Jan-21 12:36 099 1 gusting 7 16.1
2020-Jan-21 12:31 163 3 gusting 6 16.1
2020-Jan-21 12:26 123 4 gusting 10 16.1
2020-Jan-21 12:21 116 2 gusting 9 16.7
2020-Jan-21 12:16 146 0 gusting 5 16.1
2020-Jan-21 12:11 018 16.1
2020-Jan-21 12:06 032 4 gusting 6 16.1
2020-Jan-21 12:01 020 2 gusting 5 16.1
2020-Jan-21 11:56 329 2 gusting 6 16.1
2020-Jan-21 11:51 203 1 gusting 3 16.1
2020-Jan-21 11:46 167 16.1
2020-Jan-21 11:41 163 16.1
2020-Jan-21 11:36 250 15.6
2020-Jan-21 11:31 277 15.6
2020-Jan-21 11:26 294 1 gusting 5 15.6
2020-Jan-21 11:21 014 15.6
2020-Jan-21 11:16 15.6
2020-Jan-21 11:11 021 2 gusting 8 15.6
2020-Jan-21 11:06 117 2 gusting 12 15.6
2020-Jan-21 11:01 121 0 gusting 12 15.6
2020-Jan-21 10:56 132 3 gusting 19 15.6
2020-Jan-21 10:51 080 0 gusting 6 15.6
2020-Jan-21 10:46 134 15.6
2020-Jan-21 10:41 094 1 gusting 6 15.6
2020-Jan-21 10:36 144 4 gusting 11 15.6
2020-Jan-21 10:31 150 5 gusting 9 15.6
2020-Jan-21 09:31 037 15.6
2020-Jan-21 09:26 084 15.6
2020-Jan-21 09:21 132 4 gusting 9 15.6
2020-Jan-21 09:16 15.6
2020-Jan-21 09:11 091 15.6
2020-Jan-21 09:06 076 4 gusting 8 15.6
2020-Jan-21 09:01 083 1 gusting 6 15.6
2020-Jan-21 08:56 086 2 gusting 4 15.6
2020-Jan-21 08:51 090 4 gusting 4 15.6
2020-Jan-21 08:46 115 6 gusting 6 15.0
2020-Jan-21 08:41 023 4 gusting 6 15.0
2020-Jan-21 08:36 095 0 gusting 4 15.0
2020-Jan-21 08:31 005 15.0
2020-Jan-21 08:26 133 1 gusting 2 15.0
2020-Jan-21 08:21 163 15.0
2020-Jan-21 08:16 134 1 gusting 4 15.0
2020-Jan-21 08:11 107 14.4
2020-Jan-21 08:06 166 1 gusting 6 14.4
2020-Jan-21 08:01 137 2 gusting 3 13.9
2020-Jan-21 07:56 073 13.9
2020-Jan-21 07:51 202 13.3
2020-Jan-21 07:46 202 0 gusting 4 13.3
2020-Jan-21 07:41 200 2 gusting 5 13.3
2020-Jan-21 07:36 231 13.3
2020-Jan-21 07:31 231 0 gusting 1 13.3
2020-Jan-21 07:26 231 13.3
2020-Jan-21 07:21 234 0 gusting 1 13.3
2020-Jan-21 07:16 234 12.8
2020-Jan-21 07:11 234 12.8
2020-Jan-21 07:06 234 12.8
2020-Jan-21 07:01 234 0 gusting 4 12.8
2020-Jan-21 06:56 262 12.8
2020-Jan-21 06:51 194 4 gusting 4 12.8
2020-Jan-21 06:46 194 3 gusting 4 12.8
2020-Jan-21 06:41 331 0 gusting 3 12.8
2020-Jan-21 06:36 224 12.8
2020-Jan-21 06:31 219 3 gusting 5 13.3
2020-Jan-21 06:26 226 3 gusting 6 13.3
2020-Jan-21 06:21 304 0 gusting 2 13.3
2020-Jan-21 06:16 304 2 gusting 3 13.3
2020-Jan-21 06:11 319 13.3
2020-Jan-21 06:06 341 0 gusting 4 12.8
2020-Jan-21 06:01 248 13.3
2020-Jan-21 05:56 248 1 gusting 3 13.3
2020-Jan-21 05:51 259 13.3
2020-Jan-21 05:46 259 13.3
2020-Jan-21 05:41 279 3 gusting 5 13.3
2020-Jan-21 05:36 290 13.3
2020-Jan-21 05:31 306 0 gusting 3 13.3
2020-Jan-21 05:26 263 3 gusting 4 13.3
2020-Jan-21 05:21 207 13.9
2020-Jan-21 05:16 176 2 gusting 2 13.9
2020-Jan-21 05:11 143 1 gusting 1 13.9
2020-Jan-21 05:06 143 13.9
2020-Jan-21 05:01 143 13.9
2020-Jan-21 04:56 143 2 gusting 3 13.9
2020-Jan-21 04:51 117 14.4
2020-Jan-21 04:46 049 14.4
2020-Jan-21 04:41 058 1 gusting 5 14.4
2020-Jan-21 04:36 088 0 gusting 6 13.9
2020-Jan-21 04:31 065 0 gusting 5 13.9
2020-Jan-21 04:26 074 2 gusting 6 13.9
2020-Jan-21 04:21 068 3 gusting 3 13.9
2020-Jan-21 04:16 075 1 gusting 6 13.9
2020-Jan-21 04:11 340 13.9
2020-Jan-21 04:06 313 1 gusting 5 13.9
2020-Jan-21 04:01 020 0 gusting 4 13.9
2020-Jan-21 03:56 009 2 gusting 3 13.9
2020-Jan-21 03:51 268 13.9
2020-Jan-21 03:46 278 0 gusting 2 14.4
2020-Jan-21 03:41 278 1 gusting 1 14.4
2020-Jan-21 03:36 278 14.4
2020-Jan-21 03:31 277 0 gusting 3 14.4
2020-Jan-21 03:26 163 1 gusting 4 14.4
2020-Jan-21 03:21 329 0 gusting 4 14.4
2020-Jan-21 03:16 223 14.4
2020-Jan-21 03:11 223 14.4
2020-Jan-21 03:06 217 14.4
2020-Jan-21 03:01 224 1 gusting 6 15.0
2020-Jan-21 02:56 167 0 gusting 2 15.0
2020-Jan-21 02:51 177 15.0
2020-Jan-21 02:46 107 3 gusting 6 14.4
2020-Jan-21 02:41 076 3 gusting 4 14.4
2020-Jan-21 02:36 118 14.4
2020-Jan-21 02:31 154 5 gusting 7 13.9
2020-Jan-21 02:26 074 13.9
2020-Jan-21 02:21 238 2 gusting 3 13.9
2020-Jan-21 02:16 219 2 gusting 2 14.4
2020-Jan-21 02:11 134 14.4
2020-Jan-21 02:06 134 14.4
2020-Jan-21 02:01 134 15.0
2020-Jan-21 01:56 100 15.0
2020-Jan-21 01:51 092 15.0
2020-Jan-21 01:46 094 1 gusting 8 15.0
2020-Jan-21 01:41 088 15.0
2020-Jan-21 01:36 080 15.0
2020-Jan-21 01:31 106 15.0
2020-Jan-21 01:26 140 3 gusting 6 15.0
2020-Jan-21 01:21 150 3 gusting 7 14.4
2020-Jan-21 01:16 101 4 gusting 7 14.4
2020-Jan-21 01:11 113 1 gusting 6 14.4
2020-Jan-21 01:06 140 2 gusting 8 14.4
2020-Jan-21 01:01 292 0 gusting 1 14.4
2020-Jan-21 00:56 301 14.4
2020-Jan-21 00:51 308 2 gusting 3 14.4
2020-Jan-21 00:46 149 14.4
2020-Jan-21 00:41 198 3 gusting 3 15.0
2020-Jan-21 00:36 112 15.0
2020-Jan-21 00:31 067 3 gusting 5 15.0
2020-Jan-21 00:26 059 1 gusting 8 15.0
2020-Jan-21 00:21 082 4 gusting 9 15.0
2020-Jan-21 00:16 077 4 gusting 11 15.0
2020-Jan-21 00:11 094 7 gusting 11 15.0
2020-Jan-21 00:06 128 3 gusting 7 14.4
2020-Jan-21 00:01 113 1 gusting 7 14.4
2020-Jan-20 23:56 056 14.4
2020-Jan-20 23:51 194 14.4
2020-Jan-20 23:46 021 14.4
2020-Jan-20 23:41 338 2 gusting 3 14.4
2020-Jan-20 23:36 137 0 gusting 4 13.9
2020-Jan-20 23:31 305 14.4
2020-Jan-20 23:26 305 1 gusting 4 14.4
2020-Jan-20 23:21 252 1 gusting 2 14.4
2020-Jan-20 23:16 252 14.4
2020-Jan-20 23:11 252 0 gusting 4 14.4
2020-Jan-20 23:06 151 1 gusting 2 14.4
2020-Jan-20 23:01 117 1 gusting 2 15.0
2020-Jan-20 22:56 101 1 gusting 7 15.0
2020-Jan-20 22:51 152 1 gusting 4 15.0
2020-Jan-20 22:46 101 1 gusting 7 15.0
2020-Jan-20 22:41 163 15.0
2020-Jan-20 22:36 116 0 gusting 11 15.0
2020-Jan-20 22:31 080 7 gusting 9 14.4
2020-Jan-20 22:26 009 2 gusting 7 14.4
2020-Jan-20 22:21 184 14.4
2020-Jan-20 22:16 184 1 gusting 4 15.0
2020-Jan-20 22:11 143 1 gusting 6 15.0
2020-Jan-20 22:06 086 1 gusting 4 15.0
2020-Jan-20 22:01 167 2 gusting 4 15.0
2020-Jan-20 21:56 134 0 gusting 5 15.0
2020-Jan-20 21:51 068 3 gusting 6 15.0
2020-Jan-20 21:46 076 0 gusting 9 15.0
2020-Jan-20 21:41 150 2 gusting 6 14.4
2020-Jan-20 21:36 094 14.4
2020-Jan-20 21:31 020 0 gusting 4 15.0
2020-Jan-20 21:26 146 2 gusting 5 15.0
2020-Jan-20 21:21 165 1 gusting 9 15.0
2020-Jan-20 21:16 146 15.0
2020-Jan-20 21:11 124 1 gusting 7 15.0
2020-Jan-20 21:06 120 0 gusting 9 15.0
2020-Jan-20 21:01 076 8 gusting 11 15.0
2020-Jan-20 20:56 188 6 gusting 6 15.0
2020-Jan-20 20:51 138 3 gusting 8 15.0
2020-Jan-20 20:46 152 3 gusting 17 15.0
2020-Jan-20 20:41 084 7 gusting 13 15.0
2020-Jan-20 20:36 021 5 gusting 10 15.0
2020-Jan-20 20:31 083 15.0
2020-Jan-20 20:26 094 5 gusting 7 15.0
2020-Jan-20 20:21 150 2 gusting 11 15.0
2020-Jan-20 20:16 183 8 gusting 8 15.0
2020-Jan-20 20:11 308 15.0
2020-Jan-20 20:06 188 5 gusting 8 15.0
2020-Jan-20 20:01 249 2 gusting 8 15.0
2020-Jan-20 19:56 154 5 gusting 13 15.0
2020-Jan-20 19:51 084 1 gusting 13 15.0
2020-Jan-20 19:46 083 2 gusting 7 15.0
2020-Jan-20 19:41 122 3 gusting 13 15.0
2020-Jan-20 19:36 093 4 gusting 12 15.0
2020-Jan-20 19:31 065 8 gusting 22 15.0
2020-Jan-20 19:26 118 15 gusting 15 15.0
2020-Jan-20 19:21 119 6 gusting 12 15.0
2020-Jan-20 19:16 116 15.0
2020-Jan-20 19:11 201 8 gusting 11 15.0
2020-Jan-20 19:06 128 15.0
2020-Jan-20 19:01 139 2 gusting 16 15.0
2020-Jan-20 18:56 277 8 gusting 10 15.0
2020-Jan-20 18:51 087 7 gusting 13 15.0
2020-Jan-20 18:46 117 6 gusting 13 15.0
2020-Jan-20 18:41 153 4 gusting 8 15.0
2020-Jan-20 18:36 172 5 gusting 9 15.0
2020-Jan-20 18:31 076 2 gusting 12 15.0
2020-Jan-20 18:26 133 1 gusting 15 15.0
2020-Jan-20 18:21 187 1 gusting 6 15.0
2020-Jan-20 18:16 136 2 gusting 14 15.0
2020-Jan-20 18:11 257 15.0
2020-Jan-20 18:06 300 6 gusting 11 15.0
2020-Jan-20 18:01 335 2 gusting 11 15.0
2020-Jan-20 17:56 326 3 gusting 6 14.4
2020-Jan-20 17:51 306 1 gusting 4 14.4
2020-Jan-20 17:46 205 14.4
2020-Jan-20 17:41 024 2 gusting 4 15.0
2020-Jan-20 17:36 231 1 gusting 5 15.0
2020-Jan-20 17:31 257 4 gusting 5 15.0
2020-Jan-20 17:26 322 0 gusting 8 15.0
2020-Jan-20 17:21 005 5 gusting 6 15.0
2020-Jan-20 17:16 240 4 gusting 6 15.0
2020-Jan-20 17:11 267 2 gusting 4 15.0
2020-Jan-20 17:06 188 15.0
2020-Jan-20 17:01 220 2 gusting 4 15.0
2020-Jan-20 16:56 175 15.0
2020-Jan-20 16:51 213 15.0
2020-Jan-20 16:46 213 1 gusting 4 15.0
2020-Jan-20 16:41 197 3 gusting 3 15.0
2020-Jan-20 16:36 144 1 gusting 5 15.0
2020-Jan-20 16:31 219 5 gusting 6 15.0
2020-Jan-20 16:26 290 2 gusting 4 15.0
2020-Jan-20 16:21 207 0 gusting 0 15.0
2020-Jan-20 16:16 207 15.0
2020-Jan-20 16:11 298 6 gusting 6 15.6
2020-Jan-20 16:06 213 5 gusting 10 15.6
2020-Jan-20 16:01 159 4 gusting 9 15.6
2020-Jan-20 15:56 057 0 gusting 6 15.6
2020-Jan-20 15:51 067 15.6
2020-Jan-20 15:46 161 6 gusting 11 15.6
2020-Jan-20 15:41 121 15.6
2020-Jan-20 15:36 135 2 gusting 4 15.6
2020-Jan-20 15:31 103 15.6
2020-Jan-20 15:26 148 15.6
2020-Jan-20 15:21 161 1 gusting 4 15.6
2020-Jan-20 15:16 119 2 gusting 5 15.6
2020-Jan-20 15:11 074 2 gusting 5 15.6
2020-Jan-20 15:06 103 15.6
2020-Jan-20 15:01 155 15.6
2020-Jan-20 14:56 137 3 gusting 4 15.6
2020-Jan-20 14:51 141 3 gusting 6 15.6
2020-Jan-20 14:46 090 1 gusting 9 15.6
2020-Jan-20 14:41 100 1 gusting 15 15.6
2020-Jan-20 14:36 080 6 gusting 11 15.6
2020-Jan-20 14:31 130 1 gusting 6 15.6
2020-Jan-20 14:26 099 4 gusting 6 15.6
2020-Jan-20 14:21 080 1 gusting 7 15.6
2020-Jan-20 14:16 071 4 gusting 4 15.6
2020-Jan-20 14:11 084 15.6
2020-Jan-20 14:06 066 15.6
2020-Jan-20 14:01 072 15.6